| time (UTC) | temp F | wind direction | speed MPH | gust MPH | rain 1hr in | rain 24hr in | rain mn in | humidity % | barometer mb |
| 20260831041804 | 68 | 266 | 5.0 | 13.0 | 0.00 | 0.00 | 0.00 | 45 | 1014.2 |
| 20260831041304 | 68 | 236 | 8.0 | 17.0 | 0.00 | 0.00 | 0.00 | 44 | 1014.2 |
| 20260831040804 | 68 | 262 | 9.0 | 15.0 | 0.00 | 0.00 | 0.00 | 44 | 1014.2 |
| 20260831040304 | 68 | 286 | 8.0 | 17.0 | 0.00 | 0.00 | 0.00 | 43 | 1014.2 |
| 20260831035306 | 68 | 298 | 9.0 | 16.0 | 0.00 | 0.00 | 0.00 | 43 | 1014.2 |
| 20260831034305 | 69 | 271 | 12.0 | 20.0 | 0.00 | 0.00 | 0.00 | 42 | 1014.0 |
| 20260831033804 | 69 | 270 | 9.0 | 16.0 | 0.00 | 0.00 | 0.00 | 42 | 1014.0 |
| 20260831033304 | 69 | 265 | 12.0 | 22.0 | 0.00 | 0.00 | 0.00 | 42 | 1014.0 |
| 20260831032804 | 69 | 261 | 9.0 | 18.0 | 0.00 | 0.00 | 0.00 | 42 | 1013.9 |
| 20260831032306 | 69 | 271 | 12.0 | 20.0 | 0.00 | 0.00 | 0.00 | 41 | 1013.9 |
| 20260831031804 | 69 | 286 | 10.0 | 18.0 | 0.00 | 0.00 | 0.00 | 41 | 1013.9 |
| 20260831031304 | 69 | 262 | 13.0 | 23.0 | 0.00 | 0.00 | 0.00 | 41 | 1013.9 |
| 20260831030804 | 69 | 282 | 12.0 | 21.0 | 0.00 | 0.00 | 0.00 | 40 | 1013.8 |
| 20260831030304 | 70 | 281 | 10.0 | 21.0 | 0.00 | 0.00 | 0.00 | 40 | 1013.8 |
| 20260831025803 | 70 | 262 | 12.0 | 23.0 | 0.00 | 0.00 | 0.00 | 40 | 1013.8 |
| 20260831025306 | 70 | 255 | 10.0 | 20.0 | 0.00 | 0.00 | 0.00 | 40 | 1013.8 |
| 20260831024804 | 70 | 275 | 12.0 | 21.0 | 0.00 | 0.00 | 0.00 | 40 | 1013.8 |
| 20260831024304 | 70 | 267 | 9.0 | 16.0 | 0.00 | 0.00 | 0.00 | 40 | 1013.8 |
| 20260831023804 | 70 | 286 | 10.0 | 21.0 | 0.00 | 0.00 | 0.00 | 39 | 1013.8 |
| 20260831023304 | 70 | 285 | 12.0 | 20.0 | 0.00 | 0.00 | 0.00 | 39 | 1013.8 |
| 20260831022804 | 71 | 245 | 9.0 | 18.0 | 0.00 | 0.00 | 0.00 | 39 | 1013.9 |
| 20260831022306 | 71 | 267 | 11.0 | 20.0 | 0.00 | 0.00 | 0.00 | 38 | 1013.8 |
| 20260831021804 | 71 | 267 | 13.0 | 21.0 | 0.00 | 0.00 | 0.00 | 39 | 1013.8 |
| 20260831021304 | 71 | 260 | 11.0 | 17.0 | 0.00 | 0.00 | 0.00 | 38 | 1013.9 |
| 20260831020304 | 72 | 272 | 10.0 | 20.0 | 0.00 | 0.00 | 0.00 | 37 | 1013.9 |
| 20260831015804 | 72 | 281 | 8.0 | 18.0 | 0.00 | 0.00 | 0.00 | 37 | 1013.8 |
| 20260831015305 | 72 | 280 | 7.0 | 22.0 | 0.00 | 0.00 | 0.00 | 36 | 1013.7 |
| 20260831014804 | 72 | 271 | 9.0 | 21.0 | 0.00 | 0.00 | 0.00 | 36 | 1013.8 |
| 20260831013804 | 73 | 281 | 6.0 | 14.0 | 0.00 | 0.00 | 0.00 | 35 | 1013.7 |
| 20260831013304 | 73 | 298 | 9.0 | 20.0 | 0.00 | 0.00 | 0.00 | 35 | 1013.8 |
| 20260831012804 | 73 | 270 | 7.0 | 17.0 | 0.00 | 0.00 | 0.00 | 34 | 1013.8 |
| 20260831011804 | 73 | 278 | 10.0 | 17.0 | 0.00 | 0.00 | 0.00 | 34 | 1013.9 |
| 20260831011304 | 73 | 288 | 6.0 | 16.0 | 0.00 | 0.00 | 0.00 | 34 | 1013.9 |
| 20260831010804 | 73 | 275 | 8.0 | 16.0 | 0.00 | 0.00 | 0.00 | 33 | 1013.9 |
| 20260831010304 | 74 | 310 | 7.0 | 14.0 | 0.00 | 0.00 | 0.00 | 33 | 1013.9 |
| 20260831005804 | 74 | 267 | 7.0 | 17.0 | 0.00 | 0.00 | 0.00 | 33 | 1013.9 |
| 20260831004804 | 74 | 315 | 6.0 | 12.0 | 0.00 | 0.00 | 0.00 | 32 | 1014.0 |
| 20260831004303 | 74 | 317 | 6.0 | 14.0 | 0.00 | 0.00 | 0.00 | 32 | 1014.1 |
| 20260831003304 | 74 | 312 | 7.0 | 15.0 | 0.00 | 0.00 | 0.00 | 32 | 1014.0 |
| 20260831002804 | 74 | 318 | 7.0 | 18.0 | 0.00 | 0.00 | 0.00 | 31 | 1014.1 |
| 20260831002306 | 74 | 321 | 9.0 | 16.0 | 0.00 | 0.00 | 0.00 | 32 | 1014.1 |
| 20260831001804 | 74 | 304 | 10.0 | 18.0 | 0.00 | 0.00 | 0.00 | 32 | 1014.1 |
| 20260831001304 | 74 | 273 | 13.0 | 23.0 | 0.00 | 0.00 | 0.00 | 32 | 1014.1 |
| 20260831000804 | 74 | 260 | 12.0 | 20.0 | 0.00 | 0.00 | 0.00 | 34 | 1014.2 |
| 20260831000304 | 74 | 266 | 11.0 | 18.0 | 0.00 | 0.00 | 0.00 | 32 | 1014.2 |
| 20260830235805 | 73 | 270 | 10.0 | 20.0 | 0.00 | 0.00 | 0.00 | 32 | 1014.1 |
| 20260830235306 | 74 | 277 | 12.0 | 21.0 | 0.00 | 0.00 | 0.00 | 32 | 1014.1 |
| 20260830234804 | 74 | 263 | 12.0 | 20.0 | 0.00 | 0.00 | 0.00 | 31 | 1014.2 |
| 20260830234304 | 73 | 262 | 13.0 | 21.0 | 0.00 | 0.00 | 0.00 | 31 | 1014.3 |
| 20260830233804 | 73 | 261 | 13.0 | 18.0 | 0.00 | 0.00 | 0.00 | 33 | 1014.3 |
| 20260830233305 | 73 | 279 | 12.0 | 20.0 | 0.00 | 0.00 | 0.00 | 32 | 1014.5 |
| 20260830232805 | 73 | 264 | 12.0 | 21.0 | 0.00 | 0.00 | 0.00 | 30 | 1014.5 |
| 20260830232306 | 73 | 281 | 13.0 | 24.0 | 0.00 | 0.00 | 0.00 | 33 | 1014.5 |
| 20260830231804 | 73 | 269 | 12.0 | 20.0 | 0.00 | 0.00 | 0.00 | 33 | 1014.7 |
| 20260830231304 | 73 | 306 | 12.0 | 23.0 | 0.00 | 0.00 | 0.00 | 33 | 1014.7 |
| 20260830230804 | 73 | 261 | 12.0 | 22.0 | 0.00 | 0.00 | 0.00 | 34 | 1014.7 |
| 20260830230305 | 73 | 283 | 13.0 | 22.0 | 0.00 | 0.00 | 0.00 | 34 | 1014.8 |
| 20260830224803 | 72 | 271 | 12.0 | 18.0 | 0.00 | 0.00 | 0.00 | 34 | 1014.9 |
| 20260830224304 | 72 | 263 | 13.0 | 23.0 | 0.00 | 0.00 | 0.00 | 35 | 1015.0 |
| 20260830223803 | 72 | 268 | 12.0 | 21.0 | 0.00 | 0.00 | 0.00 | 35 | 1015.1 |
| 20260830223304 | 72 | 261 | 13.0 | 23.0 | 0.00 | 0.00 | 0.00 | 35 | 1015.3 |
| 20260830222804 | 72 | 267 | 14.0 | 23.0 | 0.00 | 0.00 | 0.00 | 36 | 1015.3 |
| 20260830222306 | 72 | 288 | 12.0 | 21.0 | 0.00 | 0.00 | 0.00 | 34 | 1015.4 |
| 20260830221304 | 71 | 274 | 13.0 | 20.0 | 0.00 | 0.00 | 0.00 | 36 | 1015.5 |
| 20260830220804 | 71 | 271 | 13.0 | 21.0 | 0.00 | 0.00 | 0.00 | 34 | 1015.6 |
| 20260830215804 | 71 | 259 | 13.0 | 23.0 | 0.00 | 0.00 | 0.00 | 33 | 1015.7 |
| 20260830215305 | 71 | 257 | 13.0 | 20.0 | 0.00 | 0.00 | 0.00 | 35 | 1015.8 |
| 20260830214804 | 71 | 270 | 13.0 | 23.0 | 0.00 | 0.00 | 0.00 | 36 | 1015.8 |
| 20260830214304 | 71 | 273 | 14.0 | 23.0 | 0.00 | 0.00 | 0.00 | 37 | 1015.8 |
| 20260830213803 | 71 | 263 | 12.0 | 20.0 | 0.00 | 0.00 | 0.00 | 36 | 1016.0 |
| 20260830213304 | 70 | 265 | 11.0 | 22.0 | 0.00 | 0.00 | 0.00 | 36 | 1016.2 |
| 20260830212804 | 70 | 294 | 12.0 | 22.0 | 0.00 | 0.00 | 0.00 | 36 | 1016.1 |
| 20260830212306 | 70 | 284 | 10.0 | 25.0 | 0.00 | 0.00 | 0.00 | 36 | 1016.2 |
| 20260830211804 | 70 | 262 | 9.0 | 23.0 | 0.00 | 0.00 | 0.00 | 37 | 1016.3 |
| 20260830210804 | 70 | 260 | 13.0 | 20.0 | 0.00 | 0.00 | 0.00 | 38 | 1016.2 |
| 20260830210304 | 70 | 285 | 9.0 | 22.0 | 0.00 | 0.00 | 0.00 | 36 | 1016.3 |
| 20260830205804 | 69 | 280 | 9.0 | 21.0 | 0.00 | 0.00 | 0.00 | 36 | 1016.3 |
| 20260830205305 | 69 | 287 | 9.0 | 23.0 | 0.00 | 0.00 | 0.00 | 38 | 1016.3 |
| 20260830204804 | 69 | 290 | 10.0 | 18.0 | 0.00 | 0.00 | 0.00 | 38 | 1016.4 |
| 20260830202305 | 68 | 258 | 12.0 | 18.0 | 0.00 | 0.00 | 0.00 | 39 | 1016.8 |
| 20260830201805 | 68 | 272 | 14.0 | 22.0 | 0.00 | 0.00 | 0.00 | 41 | 1016.8 |
| 20260830201304 | 67 | 282 | 13.0 | 23.0 | 0.00 | 0.00 | 0.00 | 40 | 1016.9 |
| 20260830200804 | 67 | 258 | 13.0 | 21.0 | 0.00 | 0.00 | 0.00 | 41 | 1017.0 |
| 20260830200303 | 67 | 273 | 14.0 | 25.0 | 0.00 | 0.00 | 0.00 | 41 | 1017.0 |
| 20260830195804 | 67 | 259 | 14.0 | 22.0 | 0.00 | 0.00 | 0.00 | 41 | 1017.0 |
| 20260830194804 | 67 | 266 | 12.0 | 20.0 | 0.00 | 0.00 | 0.00 | 41 | 1017.2 |
| 20260830194304 | 66 | 292 | 9.0 | 22.0 | 0.00 | 0.00 | 0.00 | 42 | 1017.3 |
| 20260830193804 | 66 | 278 | 12.0 | 21.0 | 0.00 | 0.00 | 0.00 | 41 | 1017.3 |
| 20260830193304 | 66 | 285 | 12.0 | 21.0 | 0.00 | 0.00 | 0.00 | 40 | 1017.3 |
| 20260830192804 | 66 | 275 | 13.0 | 23.0 | 0.00 | 0.00 | 0.00 | 42 | 1017.4 |
| 20260830192305 | 66 | 269 | 10.0 | 20.0 | 0.00 | 0.00 | 0.00 | 40 | 1017.4 |
| 20260830191804 | 66 | 273 | 12.0 | 28.0 | 0.00 | 0.00 | 0.00 | 42 | 1017.5 |
| 20260830191304 | 66 | 280 | 10.0 | 22.0 | 0.00 | 0.00 | 0.00 | 42 | 1017.6 |
| 20260830190804 | 65 | 279 | 11.0 | 22.0 | 0.00 | 0.00 | 0.00 | 41 | 1017.6 |
| 20260830190304 | 65 | 278 | 14.0 | 23.0 | 0.00 | 0.00 | 0.00 | 44 | 1017.7 |
| 20260830185804 | 65 | 270 | 12.0 | 24.0 | 0.00 | 0.00 | 0.00 | 43 | 1017.6 |
| 20260830184804 | 65 | 294 | 10.0 | 21.0 | 0.00 | 0.00 | 0.00 | 42 | 1017.8 |
| 20260830184304 | 64 | 279 | 9.0 | 23.0 | 0.00 | 0.00 | 0.00 | 43 | 1017.9 |
| 20260830183804 | 64 | 271 | 9.0 | 20.0 | 0.00 | 0.00 | 0.00 | 44 | 1018.1 |
| 20260830183304 | 64 | 282 | 10.0 | 20.0 | 0.00 | 0.00 | 0.00 | 44 | 1018.1 |
| 20260830182804 | 64 | 261 | 12.0 | 20.0 | 0.00 | 0.00 | 0.00 | 44 | 1018.1 |
| 20260830182306 | 64 | 272 | 10.0 | 18.0 | 0.00 | 0.00 | 0.00 | 44 | 1018.2 |
| 20260830181804 | 63 | 257 | 11.0 | 25.0 | 0.00 | 0.00 | 0.00 | 44 | 1018.2 |
| 20260830181304 | 63 | 270 | 13.0 | 22.0 | 0.00 | 0.00 | 0.00 | 45 | 1018.2 |
| 20260830180804 | 63 | 273 | 12.0 | 24.0 | 0.00 | 0.00 | 0.00 | 44 | 1018.2 |
| 20260830180304 | 63 | 285 | 11.0 | 20.0 | 0.00 | 0.00 | 0.00 | 45 | 1018.2 |
| 20260830175804 | 62 | 283 | 12.0 | 24.0 | 0.00 | 0.00 | 0.00 | 45 | 1018.2 |
| 20260830174803 | 62 | 267 | 12.0 | 24.0 | 0.00 | 0.00 | 0.00 | 47 | 1018.2 |
| 20260830174304 | 62 | 275 | 11.0 | 21.0 | 0.00 | 0.00 | 0.00 | 49 | 1018.2 |
| 20260830173804 | 62 | 275 | 10.0 | 20.0 | 0.00 | 0.00 | 0.00 | 48 | 1018.2 |
| 20260830173303 | 62 | 266 | 13.0 | 21.0 | 0.00 | 0.00 | 0.00 | 49 | 1018.2 |
| 20260830172306 | 61 | 272 | 13.0 | 24.0 | 0.00 | 0.00 | 0.00 | 49 | 1018.3 |
| 20260830171304 | 61 | 274 | 12.0 | 23.0 | 0.00 | 0.00 | 0.00 | 50 | 1018.3 |
| 20260830170804 | 60 | 258 | 13.0 | 20.0 | 0.00 | 0.00 | 0.00 | 51 | 1018.4 |
| 20260830170304 | 60 | 274 | 13.0 | 22.0 | 0.00 | 0.00 | 0.00 | 51 | 1018.3 |
| 20260830165804 | 60 | 271 | 9.0 | 22.0 | 0.00 | 0.00 | 0.00 | 52 | 1018.4 |
| 20260830165306 | 60 | 273 | 8.0 | 17.0 | 0.00 | 0.00 | 0.00 | 52 | 1018.4 |
| 20260830164804 | 59 | 292 | 12.0 | 20.0 | 0.00 | 0.00 | 0.00 | 53 | 1018.5 |
| 20260830164304 | 59 | 269 | 10.0 | 18.0 | 0.00 | 0.00 | 0.00 | 54 | 1018.6 |
| 20260830163804 | 59 | 282 | 11.0 | 21.0 | 0.00 | 0.00 | 0.00 | 55 | 1018.7 |
| 20260830163305 | 59 | 271 | 11.0 | 21.0 | 0.00 | 0.00 | 0.00 | 56 | 1018.7 |
| 20260830162804 | 58 | 267 | 11.0 | 21.0 | 0.00 | 0.00 | 0.00 | 56 | 1018.7 |
| 20260830161804 | 58 | 283 | 10.0 | 18.0 | 0.00 | 0.00 | 0.00 | 57 | 1018.7 |
| 20260830161304 | 58 | 278 | 10.0 | 21.0 | 0.00 | 0.00 | 0.00 | 58 | 1018.8 |
| 20260830160803 | 58 | 284 | 9.0 | 23.0 | 0.00 | 0.00 | 0.00 | 58 | 1018.9 |
| 20260830160304 | 58 | 284 | 10.0 | 20.0 | 0.00 | 0.00 | 0.00 | 59 | 1018.9 |
| 20260830154804 | 57 | 252 | 7.0 | 16.0 | 0.00 | 0.00 | 0.00 | 61 | 1019.3 |
| 20260830154304 | 57 | 258 | 7.0 | 15.0 | 0.00 | 0.00 | 0.00 | 61 | 1019.3 |
| 20260830153804 | 57 | 252 | 6.0 | 13.0 | 0.00 | 0.00 | 0.00 | 62 | 1019.4 |
| 20260830152804 | 57 | 279 | 6.0 | 13.0 | 0.00 | 0.00 | 0.00 | 62 | 1019.4 |
| 20260830152306 | 57 | 287 | 7.0 | 15.0 | 0.00 | 0.00 | 0.00 | 63 | 1019.3 |
| 20260830151804 | 57 | 276 | 5.0 | 22.0 | 0.00 | 0.00 | 0.00 | 63 | 1019.4 |
| 20260830151305 | 57 | 259 | 7.0 | 18.0 | 0.00 | 0.00 | 0.00 | 63 | 1019.2 |
| 20260830150804 | 56 | 273 | 5.0 | 14.0 | 0.00 | 0.00 | 0.00 | 65 | 1019.3 |
| 20260830150304 | 56 | 235 | 7.0 | 14.0 | 0.00 | 0.00 | 0.00 | 65 | 1019.4 |
| 20260830145803 | 56 | 214 | 6.0 | 12.0 | 0.00 | 0.00 | 0.00 | 65 | 1019.4 |
| 20260830144804 | 56 | 260 | 6.0 | 13.0 | 0.00 | 0.00 | 0.00 | 66 | 1019.5 |
| 20260830143804 | 56 | 238 | 6.0 | 12.0 | 0.00 | 0.00 | 0.00 | 66 | 1019.6 |
| 20260830143304 | 56 | 238 | 5.0 | 13.0 | 0.00 | 0.00 | 0.00 | 66 | 1019.6 |
| 20260830142804 | 56 | 226 | 4.0 | 7.0 | 0.00 | 0.00 | 0.00 | 67 | 1019.6 |
| 20260830142306 | 56 | 252 | 3.0 | 6.0 | 0.00 | 0.00 | 0.00 | 67 | 1019.5 |
| 20260830141803 | 56 | 252 | 3.0 | 6.0 | 0.00 | 0.00 | 0.00 | 67 | 1019.4 |
| 20260830141304 | 56 | 279 | 3.0 | 8.0 | 0.00 | 0.00 | 0.00 | 67 | 1019.4 |
| 20260830140805 | 56 | 257 | 3.0 | 6.0 | 0.00 | 0.00 | 0.00 | 67 | 1019.4 |
| 20260830140304 | 56 | 239 | 2.0 | 9.0 | 0.00 | 0.00 | 0.00 | 67 | 1019.3 |
| 20260830135306 | 55 | 206 | 6.0 | 10.0 | 0.00 | 0.00 | 0.00 | 67 | 1019.3 |
| 20260830134804 | 55 | 265 | 5.0 | 9.0 | 0.00 | 0.00 | 0.00 | 67 | 1019.2 |
| 20260830134304 | 55 | 247 | 3.0 | 10.0 | 0.00 | 0.00 | 0.00 | 68 | 1019.2 |
| 20260830133805 | 55 | 249 | 5.0 | 12.0 | 0.00 | 0.00 | 0.00 | 67 | 1019.1 |
| 20260830132804 | 55 | 236 | 4.0 | 15.0 | 0.00 | 0.00 | 0.00 | 68 | 1019.0 |
| 20260830131304 | 55 | 256 | 5.0 | 12.0 | 0.00 | 0.00 | 0.00 | 68 | 1018.9 |
| 20260830130804 | 55 | 262 | 5.0 | 14.0 | 0.00 | 0.00 | 0.00 | 67 | 1018.8 |
| 20260830130304 | 55 | 246 | 7.0 | 16.0 | 0.00 | 0.00 | 0.00 | 65 | 1018.7 |
| 20260830125804 | 55 | 260 | 3.0 | 10.0 | 0.00 | 0.00 | 0.00 | 67 | 1018.6 |
| 20260830125306 | 55 | 272 | 6.0 | 12.0 | 0.00 | 0.00 | 0.00 | 67 | 1018.5 |
| 20260830124804 | 55 | 240 | 3.0 | 6.0 | 0.00 | 0.00 | 0.00 | 68 | 1018.6 |
| 20260830124305 | 55 | 243 | 3.0 | 8.0 | 0.00 | 0.00 | 0.00 | 67 | 1018.6 |
| 20260830123804 | 56 | 231 | 5.0 | 9.0 | 0.00 | 0.00 | 0.00 | 67 | 1018.6 |
| 20260830123304 | 56 | 233 | 6.0 | 13.0 | 0.00 | 0.00 | 0.00 | 67 | 1018.6 |
| 20260830122306 | 56 | 241 | 7.0 | 14.0 | 0.00 | 0.00 | 0.00 | 67 | 1018.7 |
| 20260830121304 | 55 | 247 | 4.0 | 10.0 | 0.00 | 0.00 | 0.00 | 68 | 1018.7 |
| 20260830120804 | 55 | 242 | 6.0 | 10.0 | 0.00 | 0.00 | 0.00 | 68 | 1018.7 |
| 20260830120304 | 55 | 225 | 5.0 | 13.0 | 0.00 | 0.00 | 0.00 | 68 | 1018.7 |
| 20260830115804 | 56 | 255 | 6.0 | 12.0 | 0.00 | 0.00 | 0.00 | 68 | 1018.8 |
| 20260830115306 | 56 | 226 | 5.0 | 10.0 | 0.00 | 0.00 | 0.00 | 68 | 1018.8 |
| 20260830114804 | 56 | 235 | 5.0 | 9.0 | 0.00 | 0.00 | 0.00 | 67 | 1018.8 |
| 20260830114304 | 56 | 245 | 3.0 | 12.0 | 0.00 | 0.00 | 0.00 | 67 | 1018.7 |
| 20260830113804 | 56 | 217 | 6.0 | 13.0 | 0.00 | 0.00 | 0.00 | 67 | 1018.7 |
| 20260830113304 | 56 | 243 | 7.0 | 14.0 | 0.00 | 0.00 | 0.00 | 66 | 1018.6 |
| 20260830112306 | 56 | 242 | 6.0 | 10.0 | 0.00 | 0.00 | 0.00 | 66 | 1018.6 |
| 20260830111804 | 56 | 229 | 5.0 | 15.0 | 0.00 | 0.00 | 0.00 | 66 | 1018.6 |
| 20260830111304 | 56 | 218 | 5.0 | 10.0 | 0.00 | 0.00 | 0.00 | 66 | 1018.7 |
| 20260830110804 | 56 | 235 | 4.0 | 12.0 | 0.00 | 0.00 | 0.00 | 66 | 1018.7 |
| 20260830110304 | 56 | 222 | 5.0 | 14.0 | 0.00 | 0.00 | 0.00 | 66 | 1018.7 |
| 20260830105804 | 56 | 247 | 6.0 | 12.0 | 0.00 | 0.00 | 0.00 | 66 | 1018.7 |
| 20260830105305 | 56 | 251 | 5.0 | 12.0 | 0.00 | 0.00 | 0.00 | 66 | 1018.6 |
| 20260830104803 | 56 | 248 | 8.0 | 15.0 | 0.00 | 0.00 | 0.00 | 64 | 1018.6 |
| 20260830104304 | 56 | 229 | 5.0 | 10.0 | 0.00 | 0.00 | 0.00 | 66 | 1018.6 |
| 20260830103804 | 56 | 206 | 4.0 | 14.0 | 0.00 | 0.00 | 0.00 | 66 | 1018.6 |
| 20260830102804 | 56 | 232 | 5.0 | 14.0 | 0.00 | 0.00 | 0.00 | 66 | 1018.6 |
| 20260830102306 | 56 | 202 | 4.0 | 8.0 | 0.00 | 0.00 | 0.00 | 66 | 1018.6 |
| 20260830101804 | 56 | 215 | 5.0 | 13.0 | 0.00 | 0.00 | 0.00 | 65 | 1018.6 |
| 20260830100804 | 56 | 212 | 3.0 | 7.0 | 0.00 | 0.00 | 0.00 | 65 | 1018.5 |
| 20260830100304 | 57 | 217 | 2.0 | 8.0 | 0.00 | 0.00 | 0.00 | 65 | 1018.4 |
| 20260830095804 | 57 | 152 | 5.0 | 13.0 | 0.00 | 0.00 | 0.00 | 64 | 1018.5 |
| 20260830094804 | 57 | 211 | 3.0 | 10.0 | 0.00 | 0.00 | 0.00 | 64 | 1018.4 |
| 20260830094304 | 57 | 218 | 3.0 | 8.0 | 0.00 | 0.00 | 0.00 | 64 | 1018.4 |
| 20260830093804 | 57 | 225 | 5.0 | 10.0 | 0.00 | 0.00 | 0.00 | 63 | 1018.3 |
| 20260830093304 | 57 | 248 | 4.0 | 7.0 | 0.00 | 0.00 | 0.00 | 63 | 1018.3 |
| 20260830092804 | 57 | 228 | 5.0 | 12.0 | 0.00 | 0.00 | 0.00 | 62 | 1018.2 |
| 20260830092306 | 57 | 245 | 5.0 | 12.0 | 0.00 | 0.00 | 0.00 | 61 | 1018.2 |
| 20260830091804 | 57 | 269 | 4.0 | 9.0 | 0.00 | 0.00 | 0.00 | 61 | 1018.3 |
| 20260830091304 | 57 | 212 | 5.0 | 13.0 | 0.00 | 0.00 | 0.00 | 60 | 1018.3 |
| 20260830090804 | 58 | 258 | 4.0 | 8.0 | 0.00 | 0.00 | 0.00 | 60 | 1018.3 |
| 20260830090304 | 58 | 223 | 5.0 | 10.0 | 0.00 | 0.00 | 0.00 | 60 | 1018.3 |
| 20260830085804 | 58 | 239 | 4.0 | 10.0 | 0.00 | 0.00 | 0.00 | 60 | 1018.3 |
| 20260830085306 | 58 | 207 | 4.0 | 8.0 | 0.00 | 0.00 | 0.00 | 59 | 1018.3 |
| 20260830084804 | 58 | 239 | 5.0 | 14.0 | 0.00 | 0.00 | 0.00 | 59 | 1018.2 |
| 20260830084305 | 58 | 257 | 5.0 | 13.0 | 0.00 | 0.00 | 0.00 | 59 | 1018.2 |
| 20260830083805 | 58 | 239 | 6.0 | 14.0 | 0.00 | 0.00 | 0.00 | 58 | 1018.3 |
| 20260830083304 | 58 | 227 | 7.0 | 12.0 | 0.00 | 0.00 | 0.00 | 58 | 1018.3 |
| 20260830082804 | 58 | 249 | 6.0 | 10.0 | 0.00 | 0.00 | 0.00 | 58 | 1018.4 |
| 20260830082306 | 58 | 243 | 3.0 | 10.0 | 0.00 | 0.00 | 0.00 | 58 | 1018.4 |
| 20260830081804 | 58 | 267 | 5.0 | 9.0 | 0.00 | 0.00 | 0.00 | 58 | 1018.3 |
| 20260830081304 | 59 | 247 | 6.0 | 16.0 | 0.00 | 0.00 | 0.00 | 57 | 1018.2 |
| 20260830080804 | 59 | 252 | 7.0 | 13.0 | 0.00 | 0.00 | 0.00 | 57 | 1018.2 |
| 20260830080304 | 59 | 250 | 5.0 | 13.0 | 0.00 | 0.00 | 0.00 | 57 | 1018.2 |
| 20260830075804 | 59 | 207 | 6.0 | 15.0 | 0.00 | 0.00 | 0.00 | 56 | 1018.2 |
| 20260830074804 | 59 | 252 | 7.0 | 13.0 | 0.00 | 0.00 | 0.00 | 55 | 1018.1 |
| 20260830074304 | 59 | 246 | 6.0 | 9.0 | 0.00 | 0.00 | 0.00 | 55 | 1018.1 |
| 20260830073804 | 59 | 266 | 6.0 | 10.0 | 0.00 | 0.00 | 0.00 | 55 | 1018.2 |
| 20260830073304 | 59 | 267 | 6.0 | 14.0 | 0.00 | 0.00 | 0.00 | 55 | 1018.2 |
| 20260830072804 | 59 | 259 | 6.0 | 12.0 | 0.00 | 0.00 | 0.00 | 55 | 1018.1 |
| 20260830072306 | 59 | 255 | 7.0 | 12.0 | 0.00 | 0.00 | 0.00 | 55 | 1018.2 |
| 20260830071805 | 59 | 273 | 5.0 | 12.0 | 0.00 | 0.00 | 0.00 | 55 | 1018.2 |
| 20260830071304 | 60 | 247 | 5.0 | 10.0 | 0.00 | 0.00 | 0.00 | 54 | 1018.1 |
| 20260830070805 | 60 | 222 | 3.0 | 10.0 | 0.00 | 0.00 | 0.00 | 54 | 1018.2 |
| 20260830070304 | 60 | 238 | 5.0 | 10.0 | 0.00 | 0.00 | 0.00 | 53 | 1018.2 |
| 20260830065804 | 60 | 268 | 5.0 | 13.0 | 0.00 | 0.00 | 0.00 | 52 | 1018.2 |
| 20260830065306 | 60 | 241 | 5.0 | 9.0 | 0.00 | 0.00 | 0.00 | 52 | 1018.2 |
| 20260830064804 | 60 | 237 | 5.0 | 8.0 | 0.00 | 0.00 | 0.00 | 52 | 1018.2 |
| 20260830064304 | 60 | 262 | 6.0 | 12.0 | 0.00 | 0.00 | 0.00 | 51 | 1018.2 |
| 20260830063804 | 60 | 241 | 4.0 | 7.0 | 0.00 | 0.00 | 0.00 | 51 | 1018.3 |
| 20260830063304 | 60 | 222 | 4.0 | 8.0 | 0.00 | 0.00 | 0.00 | 50 | 1018.2 |
| 20260830062804 | 61 | 168 | 3.0 | 6.0 | 0.00 | 0.00 | 0.00 | 50 | 1018.2 |
| 20260830062305 | 61 | 260 | 5.0 | 13.0 | 0.00 | 0.00 | 0.00 | 50 | 1018.3 |
| 20260830061304 | 61 | 259 | 5.0 | 9.0 | 0.00 | 0.00 | 0.00 | 49 | 1018.3 |
| 20260830060304 | 62 | 272 | 6.0 | 13.0 | 0.00 | 0.00 | 0.00 | 48 | 1018.3 |
| 20260830055804 | 62 | 295 | 5.0 | 9.0 | 0.00 | 0.00 | 0.00 | 48 | 1018.3 |
| 20260830055306 | 62 | 264 | 4.0 | 12.0 | 0.00 | 0.00 | 0.00 | 47 | 1018.3 |
| 20260830054804 | 62 | 252 | 6.0 | 10.0 | 0.00 | 0.00 | 0.00 | 48 | 1018.3 |
| 20260830054304 | 62 | 210 | 5.0 | 8.0 | 0.00 | 0.00 | 0.00 | 48 | 1018.2 |
| 20260830053304 | 62 | 216 | 3.0 | 14.0 | 0.00 | 0.00 | 0.00 | 48 | 1018.2 |
| 20260830052804 | 62 | 269 | 4.0 | 12.0 | 0.00 | 0.00 | 0.00 | 48 | 1018.2 |
| 20260830052306 | 62 | 255 | 3.0 | 7.0 | 0.00 | 0.00 | 0.00 | 48 | 1018.2 |
| 20260830051804 | 62 | 234 | 3.0 | 6.0 | 0.00 | 0.00 | 0.00 | 48 | 1018.2 |
| 20260830051304 | 62 | 189 | 2.0 | 3.0 | 0.00 | 0.00 | 0.00 | 47 | 1018.2 |
| 20260830050804 | 63 | 242 | 6.0 | 10.0 | 0.00 | 0.00 | 0.00 | 47 | 1018.2 |
| 20260830045805 | 63 | 217 | 4.0 | 9.0 | 0.00 | 0.00 | 0.00 | 46 | 1018.2 |
| 20260830044805 | 63 | 284 | 5.0 | 15.0 | 0.00 | 0.00 | 0.00 | 46 | 1018.0 |
| 20260830044304 | 63 | 267 | 5.0 | 16.0 | 0.00 | 0.00 | 0.00 | 46 | 1018.0 |
| 20260830043804 | 63 | 273 | 6.0 | 18.0 | 0.00 | 0.00 | 0.00 | 46 | 1017.9 |
| 20260830043304 | 63 | 274 | 7.0 | 14.0 | 0.00 | 0.00 | 0.00 | 47 | 1017.9 |
| 20260830042804 | 63 | 247 | 9.0 | 16.0 | 0.00 | 0.00 | 0.00 | 46 | 1017.9 |
| 20260830042306 | 63 | 269 | 6.0 | 12.0 | 0.00 | 0.00 | 0.00 | 46 | 1017.8 |